Home > Weather > Tarlac City > Past weeks

Flag for Philippines Past Weather in Tarlac City, Philippines — Yesterday and Last 2 Weeks

Now
86 °F

Passing clouds.


Feels Like: 95 °F
Forecast: 77 / 92 °F
Wind: 3 mph from South

Location: Clarkfield Pampanga International Airport

Current Time: Jul 25, 2016 at 8:02:41 PM

Latest Report: Jul 25, 2016 at 7:00 PM


Visibility: N/A

Pressure: 29.80 "Hg

Humidity: 70%

Dew Point: 75 °F

Location of Tarlac CityLocation

Past Weather in Tarlac City — Graph

°F

Tarlac City Temperature Yesterday

Maximum temperature yesterday: 90 °F (at 12:00 PM)
Minimum temperature yesterday: 75 °F (at 2:00 AM)
Average temperature yesterday: 80 °F

High & Low Weather Summary for the Past Weeks

 TemperatureHumidityPressure
High95 °F (Jul 17, 4:00 PM)100% (Jul 11, 1:00 AM)29.92 "Hg (Jul 11, 1:00 AM)
Low73 °F (Jul 11, 1:00 AM)44% (Jul 18, 5:00 PM)29.74 "Hg (Jul 13, 4:00 PM)
Average83 °F79%29.85 "Hg
* Reported Jul 10 7:00 PM — Jul 25 7:00 PM, Tarlac City, Weather by CustomWeather, © 2016

Note: Actual official high and low records may vary slightly from our data, if they occured in-between our weather recording intervals... More about our weather records

Advertising

Tarlac City Weather History for the Previous 24 Hours

Scroll right to see more
 ConditionsComfort  
Time TempWeatherWind HumidityBarometerVisibility
7:00 PM
Mon, Jul 25
86 °FPassing clouds.3 mph70%29.80 "HgN/A
6:00 PM88 °FPartly sunny.5 mph66%29.80 "HgN/A
5:00 PM90 °FPartly sunny.5 mph63%29.77 "HgN/A
4:00 PM91 °FPartly sunny.6 mph59%29.77 "HgN/A
3:00 PM90 °FBroken clouds.9 mph63%29.77 "HgN/A
2:00 PM90 °FThunderstorms. Partly sunny.8 mph63%29.77 "HgN/A
1:00 PM90 °FBroken clouds.9 mph63%29.80 "HgN/A
12:00 PM88 °FBroken clouds.7 mph66%29.80 "HgN/A
11:00 AM86 °FBroken clouds.10 mph66%29.83 "HgN/A
10:00 AM84 °FBroken clouds.12 mph74%29.83 "Hg5 mi
9:00 AM82 °FPartly sunny.7 mph79%29.83 "HgN/A
8:00 AM79 °FBroken clouds.1 mph84%29.83 "Hg5 mi
7:00 AM77 °FBroken clouds.1 mph89%29.83 "Hg5 mi
6:00 AM75 °FBroken clouds.1 mph94%29.80 "Hg5 mi
5:00 AM75 °FMostly cloudy.1 mph94%29.77 "Hg5 mi
4:00 AM75 °FMostly cloudy.1 mph94%29.77 "Hg5 mi
3:00 AM75 °FMostly cloudy.1 mph94%29.80 "Hg5 mi
2:00 AM77 °FMostly cloudy.3 mph89%29.80 "Hg5 mi
1:00 AM77 °FMostly cloudy.2 mph89%29.80 "Hg5 mi
12:00 AM77 °FMostly cloudy.3 mph89%29.86 "Hg5 mi
11:00 PM
Sun, Jul 24
77 °FMostly cloudy.3 mph89%29.86 "Hg5 mi
10:00 PM75 °FMostly cloudy.5 mph94%29.86 "Hg5 mi
9:00 PM75 °FLight rain. Mostly cloudy.5 mph94%29.86 "Hg5 mi
8:00 PM75 °FLight rain. Mostly cloudy.9 mph89%29.83 "Hg5 mi
Weather by CustomWeather, © 2016

See weather overviewHow to use our weather pages